Location: Wiesbaden
(50.0830°N, 8.2500°E)
Time: 05:30:35
(UTC+02:00)

ISS - Pass Details

Date: 31 March 2020
Orbit: 417 x 423 km, 51.6° (Epoch: 29 March)

Event Time Altitude Azimuth Distance (km) Brightness Sun altitude
Rises 21:44:17 0° 287° (WNW) 2,363 1.7 -16.9°
Reaches altitude 10° 21:46:26 10° 282° (WNW) 1,497 0.2 -17.2°
Maximum altitude 21:49:40 47° 207° (SSW) 563 -3.2 -17.6°
Enters shadow 21:50:14 42° 175° (S) 611 -3.3 -17.7°
